Year,Month,Day,Hour,Minute,Value (Times are PST for temperature in C)
2017,02,11,00,00,2.80
2017,02,11,00,01,2.80
2017,02,11,00,02,2.80
2017,02,11,00,03,2.80
2017,02,11,00,04,2.80
2017,02,11,00,05,2.80
2017,02,11,00,06,2.80
2017,02,11,00,07,2.80
2017,02,11,00,08,2.80
2017,02,11,00,09,2.80
2017,02,11,00,10,2.80
2017,02,11,00,11,2.80
2017,02,11,00,12,2.90
2017,02,11,00,13,3.00
2017,02,11,00,14,3.00
2017,02,11,00,15,3.10
2017,02,11,00,16,3.10
2017,02,11,00,17,3.20
2017,02,11,00,18,3.20
2017,02,11,00,19,3.30
2017,02,11,00,20,3.30
2017,02,11,00,21,3.40
2017,02,11,00,22,3.50
2017,02,11,00,23,3.50
2017,02,11,00,24,3.50
2017,02,11,00,25,3.50
2017,02,11,00,26,3.50
2017,02,11,00,27,3.50
2017,02,11,00,28,3.50
2017,02,11,00,29,3.50
2017,02,11,00,30,3.40
2017,02,11,00,31,3.40
2017,02,11,00,32,3.50
2017,02,11,00,33,3.50
2017,02,11,00,34,3.50
2017,02,11,00,35,3.40
2017,02,11,00,36,3.40
2017,02,11,00,37,3.40
2017,02,11,00,38,3.40
2017,02,11,00,39,3.40
2017,02,11,00,40,3.40
2017,02,11,00,41,3.30
2017,02,11,00,42,3.30
2017,02,11,00,43,3.30
2017,02,11,00,44,3.30
2017,02,11,00,45,3.30
2017,02,11,00,46,3.20
2017,02,11,00,47,3.20
2017,02,11,00,48,3.20
2017,02,11,00,49,3.20
2017,02,11,00,50,3.20
2017,02,11,00,51,3.20
2017,02,11,00,52,3.20
2017,02,11,00,53,3.20
2017,02,11,00,54,3.20
2017,02,11,00,55,3.20
2017,02,11,00,56,3.20
2017,02,11,00,57,3.20
2017,02,11,00,58,3.20
2017,02,11,00,59,3.20
2017,02,11,01,00,3.20
2017,02,11,01,01,3.20
2017,02,11,01,02,3.20
2017,02,11,01,03,3.20
2017,02,11,01,04,3.20
2017,02,11,01,05,3.20
2017,02,11,01,06,3.20
2017,02,11,01,07,3.20
2017,02,11,01,08,3.20
2017,02,11,01,09,3.20
2017,02,11,01,10,3.20
2017,02,11,01,11,3.20
2017,02,11,01,12,3.10
2017,02,11,01,13,3.10
2017,02,11,01,14,3.10
2017,02,11,01,15,3.10
2017,02,11,01,16,3.10
2017,02,11,01,17,3.10
2017,02,11,01,18,3.10
2017,02,11,01,19,3.10
2017,02,11,01,20,3.00
2017,02,11,01,21,3.00
2017,02,11,01,22,3.00
2017,02,11,01,23,3.00
2017,02,11,01,24,3.00
2017,02,11,01,25,3.00
2017,02,11,01,26,3.00
2017,02,11,01,27,3.00
2017,02,11,01,28,2.90
2017,02,11,01,29,2.90
2017,02,11,01,30,2.90
2017,02,11,01,31,2.80
2017,02,11,01,32,2.80
2017,02,11,01,33,2.80
2017,02,11,01,34,2.80
2017,02,11,01,35,2.80
2017,02,11,01,36,2.80
2017,02,11,01,37,2.80
2017,02,11,01,38,2.80
2017,02,11,01,39,2.80
2017,02,11,01,40,2.80
2017,02,11,01,41,2.80
2017,02,11,01,42,2.80
2017,02,11,01,43,2.80
2017,02,11,01,44,2.80
2017,02,11,01,45,2.80
2017,02,11,01,46,2.80
2017,02,11,01,47,2.80
2017,02,11,01,48,2.70
2017,02,11,01,49,2.70
2017,02,11,01,50,2.70
2017,02,11,01,51,2.70
2017,02,11,01,52,2.70
2017,02,11,01,53,2.70
2017,02,11,01,54,2.70
2017,02,11,01,55,2.70
2017,02,11,01,56,2.70
2017,02,11,01,57,2.70
2017,02,11,01,58,2.70
2017,02,11,01,59,2.80
2017,02,11,02,00,2.80
2017,02,11,02,01,2.80
2017,02,11,02,02,2.80
2017,02,11,02,03,2.80
2017,02,11,02,04,2.80
2017,02,11,02,05,2.80
2017,02,11,02,06,2.80
2017,02,11,02,07,2.80
2017,02,11,02,08,2.80
2017,02,11,02,09,2.80
2017,02,11,02,10,2.80
2017,02,11,02,11,2.90
2017,02,11,02,12,2.90
2017,02,11,02,13,2.90
2017,02,11,02,14,2.90
2017,02,11,02,15,2.90
2017,02,11,02,16,2.90
2017,02,11,02,17,2.90
2017,02,11,02,18,2.90
2017,02,11,02,19,2.80
2017,02,11,02,20,2.80
2017,02,11,02,21,2.80
2017,02,11,02,22,2.80
2017,02,11,02,23,2.80
2017,02,11,02,24,2.70
2017,02,11,02,25,2.70
2017,02,11,02,26,2.70
2017,02,11,02,27,2.70
2017,02,11,02,28,2.60
2017,02,11,02,29,2.60
2017,02,11,02,30,2.60
2017,02,11,02,31,2.60
2017,02,11,02,32,2.60
2017,02,11,02,33,2.60
2017,02,11,02,34,2.50
2017,02,11,02,35,2.50
2017,02,11,02,36,2.50
2017,02,11,02,37,2.50
2017,02,11,02,38,2.60
2017,02,11,02,39,2.60
2017,02,11,02,40,2.60
2017,02,11,02,41,2.60
2017,02,11,02,42,2.60
2017,02,11,02,43,2.60
2017,02,11,02,44,2.60
2017,02,11,02,45,2.70
2017,02,11,02,46,2.70
2017,02,11,02,47,2.70
2017,02,11,02,48,2.70
2017,02,11,02,49,2.70
2017,02,11,02,50,2.70
2017,02,11,02,51,2.70
2017,02,11,02,52,2.80
2017,02,11,02,53,2.80
2017,02,11,02,54,2.70
2017,02,11,02,55,2.70
2017,02,11,02,56,2.70
2017,02,11,02,57,2.70
2017,02,11,02,58,2.70
2017,02,11,02,59,2.70
2017,02,11,03,00,2.70
2017,02,11,03,01,2.70
2017,02,11,03,02,2.70
2017,02,11,03,03,2.70
2017,02,11,03,04,2.70
2017,02,11,03,05,2.70
2017,02,11,03,06,2.70
2017,02,11,03,07,2.70
2017,02,11,03,08,2.60
2017,02,11,03,09,2.60
2017,02,11,03,10,2.60
2017,02,11,03,11,2.60
2017,02,11,03,12,2.60
2017,02,11,03,13,2.50
2017,02,11,03,14,2.50
2017,02,11,03,15,2.50
2017,02,11,03,16,2.40
2017,02,11,03,17,2.40
2017,02,11,03,18,2.40
2017,02,11,03,19,2.30
2017,02,11,03,20,2.30
2017,02,11,03,21,2.30
2017,02,11,03,22,2.20
2017,02,11,03,23,2.20
2017,02,11,03,24,2.10
2017,02,11,03,25,2.10
2017,02,11,03,26,2.10
2017,02,11,03,27,2.10
2017,02,11,03,28,2.10
2017,02,11,03,29,2.10
2017,02,11,03,30,2.10
2017,02,11,03,31,2.10
2017,02,11,03,32,2.10
2017,02,11,03,33,2.00
2017,02,11,03,34,2.00
2017,02,11,03,35,2.00
2017,02,11,03,36,2.00
2017,02,11,03,37,1.90
2017,02,11,03,38,1.90
2017,02,11,03,39,1.90
2017,02,11,03,40,1.80
2017,02,11,03,41,1.80
2017,02,11,03,42,1.80
2017,02,11,03,43,1.80
2017,02,11,03,44,1.80
2017,02,11,03,45,1.70
2017,02,11,03,46,1.70
2017,02,11,03,47,1.70
2017,02,11,03,48,1.70
2017,02,11,03,49,1.70
2017,02,11,03,50,1.70
2017,02,11,03,51,1.70
2017,02,11,03,52,1.70
2017,02,11,03,53,1.70
2017,02,11,03,54,1.70
2017,02,11,03,55,1.70
2017,02,11,03,56,1.70
2017,02,11,03,57,1.70
2017,02,11,03,58,1.70
2017,02,11,03,59,1.70
2017,02,11,04,00,1.60
2017,02,11,04,01,1.60
2017,02,11,04,02,1.60
2017,02,11,04,03,1.60
2017,02,11,04,04,1.60
2017,02,11,04,08,1.70
2017,02,11,04,09,1.70
2017,02,11,04,10,1.70
2017,02,11,04,11,1.70
2017,02,11,04,12,1.60
2017,02,11,04,13,1.60
2017,02,11,04,14,1.50
2017,02,11,04,15,1.50
2017,02,11,04,16,1.40
2017,02,11,04,17,1.40
2017,02,11,04,18,1.40
2017,02,11,04,19,1.40
2017,02,11,04,20,1.40
2017,02,11,04,21,1.40
2017,02,11,04,22,1.40
2017,02,11,04,23,1.40
2017,02,11,04,24,1.40
2017,02,11,04,25,1.40
2017,02,11,04,26,1.40
2017,02,11,04,27,1.40
2017,02,11,04,28,1.40
2017,02,11,04,29,1.40
2017,02,11,04,30,1.40
2017,02,11,04,31,1.50
2017,02,11,04,32,1.50
2017,02,11,04,33,1.50
2017,02,11,04,34,1.50
2017,02,11,04,35,1.50
2017,02,11,04,36,1.50
2017,02,11,04,37,1.50
2017,02,11,04,38,1.50
2017,02,11,04,39,1.50
2017,02,11,04,40,1.40
2017,02,11,04,41,1.40
2017,02,11,04,42,1.40
2017,02,11,04,43,1.40
2017,02,11,04,44,1.40
2017,02,11,04,45,1.40
2017,02,11,04,46,1.40
2017,02,11,04,47,1.30
2017,02,11,04,48,1.30
2017,02,11,04,49,1.30
2017,02,11,04,50,1.30
2017,02,11,04,51,1.30
2017,02,11,04,52,1.30
2017,02,11,04,53,1.20
2017,02,11,04,54,1.20
2017,02,11,04,55,1.20
2017,02,11,04,56,1.20
2017,02,11,04,57,1.20
2017,02,11,04,58,1.20
2017,02,11,04,59,1.20
2017,02,11,05,00,1.20
2017,02,11,05,01,1.20
2017,02,11,05,02,1.20
2017,02,11,05,03,1.20
2017,02,11,05,04,1.20
2017,02,11,05,05,1.20
2017,02,11,05,06,1.30
2017,02,11,05,07,1.30
2017,02,11,05,08,1.30
2017,02,11,05,09,1.30
2017,02,11,05,10,1.40
2017,02,11,05,11,1.40
2017,02,11,05,12,1.50
2017,02,11,05,13,1.50
2017,02,11,05,14,1.60
2017,02,11,05,15,1.60
2017,02,11,05,16,1.60
2017,02,11,05,17,1.60
2017,02,11,05,18,1.70
2017,02,11,05,19,1.70
2017,02,11,05,20,1.70
2017,02,11,05,21,1.60
2017,02,11,05,22,1.60
2017,02,11,05,23,1.70
2017,02,11,05,24,1.70
2017,02,11,05,25,1.80
2017,02,11,05,26,1.80
2017,02,11,05,27,1.90
2017,02,11,05,28,1.90
2017,02,11,05,29,1.90
2017,02,11,05,30,1.90
2017,02,11,05,31,1.90
2017,02,11,05,32,1.90
2017,02,11,05,33,1.80
2017,02,11,05,34,1.80
2017,02,11,05,35,1.80
2017,02,11,05,36,1.80
2017,02,11,05,37,1.80
2017,02,11,05,38,1.80
2017,02,11,05,39,1.90
2017,02,11,05,40,1.90
2017,02,11,05,41,2.00
2017,02,11,05,42,2.00
2017,02,11,05,43,2.00
2017,02,11,05,44,2.10
2017,02,11,05,45,2.10
2017,02,11,05,46,2.10
2017,02,11,05,47,2.10
2017,02,11,05,48,2.10
2017,02,11,05,49,2.10
2017,02,11,05,50,2.10
2017,02,11,05,51,2.10
2017,02,11,05,52,2.10
2017,02,11,05,53,2.20
2017,02,11,05,54,2.20
2017,02,11,05,55,2.20
2017,02,11,05,56,2.20
2017,02,11,05,57,2.30
2017,02,11,05,58,2.30
2017,02,11,05,59,2.30
2017,02,11,06,00,2.40
2017,02,11,06,01,2.50
2017,02,11,06,02,2.40
2017,02,11,06,03,2.40
2017,02,11,06,04,2.40
2017,02,11,06,05,2.40
2017,02,11,06,06,2.40
2017,02,11,06,07,2.40
2017,02,11,06,08,2.40
2017,02,11,06,09,2.40
2017,02,11,06,10,2.40
2017,02,11,06,11,2.40
2017,02,11,06,12,2.50
2017,02,11,06,13,2.50
2017,02,11,06,14,2.60
2017,02,11,06,15,2.60
2017,02,11,06,16,2.60
2017,02,11,06,17,2.60
2017,02,11,06,18,2.60
2017,02,11,06,19,2.60
2017,02,11,06,20,2.70
2017,02,11,06,21,2.70
2017,02,11,06,22,2.70
2017,02,11,06,23,2.70
2017,02,11,06,24,2.70
2017,02,11,06,25,2.70
2017,02,11,06,26,2.70
2017,02,11,06,27,2.60
2017,02,11,06,28,2.60
2017,02,11,06,29,2.50
2017,02,11,06,30,2.50
2017,02,11,06,31,2.40
2017,02,11,06,32,2.30
2017,02,11,06,33,2.20
2017,02,11,06,34,2.10
2017,02,11,06,35,2.00
2017,02,11,06,36,1.90
2017,02,11,06,37,1.80
2017,02,11,06,38,1.80
2017,02,11,06,39,1.70
2017,02,11,06,40,1.70
2017,02,11,06,41,1.70
2017,02,11,06,42,1.80
2017,02,11,06,43,1.80
2017,02,11,06,44,1.80
2017,02,11,06,45,1.80
2017,02,11,06,46,1.80
2017,02,11,06,47,1.80
2017,02,11,06,48,1.80
2017,02,11,06,49,1.80
2017,02,11,06,50,1.80
2017,02,11,06,51,1.80
2017,02,11,06,52,1.80
2017,02,11,06,53,1.80
2017,02,11,06,54,1.80
2017,02,11,06,55,1.80
2017,02,11,06,56,1.80
2017,02,11,06,57,1.90
2017,02,11,06,58,1.90
2017,02,11,06,59,2.00
2017,02,11,07,00,2.00
2017,02,11,07,01,2.10
2017,02,11,07,02,2.10
2017,02,11,07,03,2.10
2017,02,11,07,04,2.10
2017,02,11,07,05,2.10
2017,02,11,07,06,2.10
2017,02,11,07,07,2.10
2017,02,11,07,08,2.10
2017,02,11,07,09,2.10
2017,02,11,07,10,2.10
2017,02,11,07,11,2.20
2017,02,11,07,12,2.20
2017,02,11,07,13,2.20
2017,02,11,07,14,2.30
2017,02,11,07,15,2.30
2017,02,11,07,16,2.40
2017,02,11,07,17,2.50
2017,02,11,07,18,2.50
2017,02,11,07,19,2.50
2017,02,11,07,20,2.60
2017,02,11,07,21,2.70
2017,02,11,07,22,2.70
2017,02,11,07,23,2.70
2017,02,11,07,24,2.80
2017,02,11,07,25,2.80
2017,02,11,07,26,2.80
2017,02,11,07,27,2.80
2017,02,11,07,28,2.80
2017,02,11,07,29,2.80
2017,02,11,07,30,2.90
2017,02,11,07,31,2.90
2017,02,11,07,32,2.80
2017,02,11,07,33,2.80
2017,02,11,07,34,2.80
2017,02,11,07,35,2.80
2017,02,11,07,36,2.80
2017,02,11,07,37,2.90
2017,02,11,07,38,2.90
2017,02,11,07,39,2.90
2017,02,11,07,40,2.80
2017,02,11,07,41,2.80
2017,02,11,07,42,2.80
2017,02,11,07,43,2.80
2017,02,11,07,44,2.80
2017,02,11,07,45,2.80
2017,02,11,07,46,2.80
2017,02,11,07,47,2.80
2017,02,11,07,48,2.80
2017,02,11,07,49,2.80
2017,02,11,07,50,2.80
2017,02,11,07,51,2.80
2017,02,11,07,52,2.80
2017,02,11,07,53,2.70
2017,02,11,07,54,2.70
2017,02,11,07,55,2.70
2017,02,11,07,56,2.60
2017,02,11,07,57,2.60
2017,02,11,07,58,2.60
2017,02,11,07,59,2.60
2017,02,11,08,00,2.60
2017,02,11,08,01,2.70
2017,02,11,08,02,2.70
2017,02,11,08,03,2.70
2017,02,11,08,04,2.70
2017,02,11,08,05,2.70
2017,02,11,08,06,2.70
2017,02,11,08,07,2.70
2017,02,11,08,08,2.80
2017,02,11,08,09,2.70
2017,02,11,08,10,2.80
2017,02,11,08,11,2.80
2017,02,11,08,12,2.80
2017,02,11,08,13,2.80
2017,02,11,08,14,2.80
2017,02,11,08,15,2.80
2017,02,11,08,16,2.90
2017,02,11,08,17,2.90
2017,02,11,08,18,2.90
2017,02,11,08,19,2.90
2017,02,11,08,20,2.90
2017,02,11,08,21,2.90
2017,02,11,08,22,2.90
2017,02,11,08,23,2.90
2017,02,11,08,24,2.90
2017,02,11,08,25,2.90
2017,02,11,08,26,2.90
2017,02,11,08,27,2.90
2017,02,11,08,28,2.90
2017,02,11,08,29,2.90
2017,02,11,08,30,2.90
2017,02,11,08,31,2.90
2017,02,11,08,32,2.90
2017,02,11,08,33,2.90
2017,02,11,08,34,2.90
2017,02,11,08,35,3.00
2017,02,11,08,36,3.00
2017,02,11,08,37,3.00
2017,02,11,08,38,3.00
2017,02,11,08,39,3.00
2017,02,11,08,40,3.00
2017,02,11,08,41,3.00
2017,02,11,08,42,3.00
2017,02,11,08,43,3.00
2017,02,11,08,44,3.00
2017,02,11,08,45,3.00
2017,02,11,08,46,3.00
2017,02,11,08,47,3.00
2017,02,11,08,48,3.00
2017,02,11,08,49,3.10
2017,02,11,08,50,3.00
2017,02,11,08,51,3.10
2017,02,11,08,52,3.10
2017,02,11,08,53,3.10
2017,02,11,08,54,3.10
2017,02,11,08,55,3.10
2017,02,11,08,56,3.10
2017,02,11,08,57,3.10
2017,02,11,08,58,3.00
2017,02,11,08,59,3.10
2017,02,11,09,00,3.00
2017,02,11,09,01,3.00
2017,02,11,09,02,3.00
2017,02,11,09,03,3.00
2017,02,11,09,04,3.00
2017,02,11,09,05,3.00
2017,02,11,09,06,2.90
2017,02,11,09,07,2.90
2017,02,11,09,08,2.90
2017,02,11,09,09,2.90
2017,02,11,09,10,2.90
2017,02,11,09,11,2.90
2017,02,11,09,12,2.90
2017,02,11,09,13,2.90
2017,02,11,09,14,2.90
2017,02,11,09,15,2.90
2017,02,11,09,16,2.90
2017,02,11,09,17,2.90
2017,02,11,09,18,2.90
2017,02,11,09,19,3.00
2017,02,11,09,20,3.00
2017,02,11,09,21,3.10
2017,02,11,09,22,3.10
2017,02,11,09,23,3.20
2017,02,11,09,24,3.30
2017,02,11,09,25,3.30
2017,02,11,09,26,3.30
2017,02,11,09,27,3.40
2017,02,11,09,28,3.40
2017,02,11,09,29,3.40
2017,02,11,09,30,3.50
2017,02,11,09,31,3.60
2017,02,11,09,32,3.60
2017,02,11,09,33,3.70
2017,02,11,09,34,3.70
2017,02,11,09,35,3.80
2017,02,11,09,36,3.80
2017,02,11,09,37,3.90
2017,02,11,09,38,3.90
2017,02,11,09,39,4.00
2017,02,11,09,40,4.00
2017,02,11,09,41,4.00
2017,02,11,09,42,4.10
2017,02,11,09,43,4.10
2017,02,11,09,44,4.20
2017,02,11,09,45,4.20
2017,02,11,09,46,4.30
2017,02,11,09,47,4.30
2017,02,11,09,48,4.40
2017,02,11,09,49,4.50
2017,02,11,09,50,4.60
2017,02,11,09,51,4.70
2017,02,11,09,52,4.80
2017,02,11,09,53,4.90
2017,02,11,09,54,5.00
2017,02,11,09,55,5.00
2017,02,11,09,56,5.10
2017,02,11,09,57,5.20
2017,02,11,09,58,5.30
2017,02,11,09,59,5.30
2017,02,11,10,00,5.40
2017,02,11,10,01,5.50
2017,02,11,10,02,5.50
2017,02,11,10,03,5.60
2017,02,11,10,04,5.70
2017,02,11,10,05,5.70
2017,02,11,10,06,5.70
2017,02,11,10,07,5.80
2017,02,11,10,08,5.80
2017,02,11,10,09,5.80
2017,02,11,10,10,5.80
2017,02,11,10,11,5.90
2017,02,11,10,12,5.90
2017,02,11,10,13,5.90
2017,02,11,10,14,5.90
2017,02,11,10,15,6.00
2017,02,11,10,16,6.00
2017,02,11,10,17,6.10
2017,02,11,10,18,6.10
2017,02,11,10,19,6.10
2017,02,11,10,20,6.20
2017,02,11,10,21,6.20
2017,02,11,10,22,6.20
2017,02,11,10,23,6.20
2017,02,11,10,24,6.30
2017,02,11,10,25,6.30
2017,02,11,10,26,6.30
2017,02,11,10,27,6.30
2017,02,11,10,28,6.30
2017,02,11,10,29,6.30
2017,02,11,10,30,6.30
2017,02,11,10,31,6.30
2017,02,11,10,32,6.30
2017,02,11,10,33,6.30
2017,02,11,10,34,6.30
2017,02,11,10,35,6.30
2017,02,11,10,36,6.30
2017,02,11,10,37,6.40
2017,02,11,10,38,6.40
2017,02,11,10,39,6.40
2017,02,11,10,40,6.50
2017,02,11,10,41,6.50
2017,02,11,10,42,6.60
2017,02,11,10,43,6.60
2017,02,11,10,44,6.70
2017,02,11,10,45,6.70
2017,02,11,10,46,6.70
2017,02,11,10,47,6.80
2017,02,11,10,48,6.80
2017,02,11,10,49,6.80
2017,02,11,10,50,6.80
2017,02,11,10,51,6.80
2017,02,11,10,52,6.70
2017,02,11,10,53,6.70
2017,02,11,10,54,6.70
2017,02,11,10,55,6.70
2017,02,11,10,56,6.70
2017,02,11,10,57,6.70
2017,02,11,10,58,6.70
2017,02,11,10,59,6.70
2017,02,11,11,00,6.70
2017,02,11,11,01,6.80
2017,02,11,11,02,6.80
2017,02,11,11,03,6.80
2017,02,11,11,04,6.80
2017,02,11,11,05,6.90
2017,02,11,11,06,6.90
2017,02,11,11,07,6.90
2017,02,11,11,08,7.00
2017,02,11,11,09,7.00
2017,02,11,11,10,7.10
2017,02,11,11,11,7.10
2017,02,11,11,12,7.20
2017,02,11,11,13,7.20
2017,02,11,11,14,7.20
2017,02,11,11,15,7.30
2017,02,11,11,16,7.30
2017,02,11,11,17,7.40
2017,02,11,11,18,7.40
2017,02,11,11,19,7.40
2017,02,11,11,20,7.40
2017,02,11,11,21,7.50
2017,02,11,11,22,7.50
2017,02,11,11,23,7.50
2017,02,11,11,24,7.50
2017,02,11,11,25,7.50
2017,02,11,11,26,7.50
2017,02,11,11,27,7.40
2017,02,11,11,28,7.40
2017,02,11,11,29,7.50
2017,02,11,11,30,7.50
2017,02,11,11,31,7.50
2017,02,11,11,32,7.60
2017,02,11,11,33,7.60
2017,02,11,11,34,7.60
2017,02,11,11,35,7.70
2017,02,11,11,36,7.80
2017,02,11,11,37,7.90
2017,02,11,11,38,7.90
2017,02,11,11,39,8.00
2017,02,11,11,40,8.10
2017,02,11,11,41,8.30
2017,02,11,11,42,8.30
2017,02,11,11,43,8.40
2017,02,11,11,44,8.40
2017,02,11,11,45,8.40
2017,02,11,11,46,8.40
2017,02,11,11,47,8.40
2017,02,11,11,48,8.30
2017,02,11,11,49,8.30
2017,02,11,11,50,8.20
2017,02,11,11,51,8.10
2017,02,11,11,52,8.00
2017,02,11,11,53,7.90
2017,02,11,11,54,7.90
2017,02,11,11,55,7.80
2017,02,11,11,56,7.70
2017,02,11,11,57,7.70
2017,02,11,11,58,7.70
2017,02,11,11,59,7.70
2017,02,11,12,00,7.70
2017,02,11,12,01,7.60
2017,02,11,12,02,7.60
2017,02,11,12,03,7.60
2017,02,11,12,04,7.60
2017,02,11,12,05,7.60
2017,02,11,12,06,7.60
2017,02,11,12,07,7.50
2017,02,11,12,08,7.50
2017,02,11,12,09,7.50
2017,02,11,12,10,7.50
2017,02,11,12,11,7.40
2017,02,11,12,12,7.40
2017,02,11,12,13,7.40
2017,02,11,12,14,7.40
2017,02,11,12,15,7.30
2017,02,11,12,16,7.40
2017,02,11,12,17,7.40
2017,02,11,12,18,7.40
2017,02,11,12,19,7.50
2017,02,11,12,20,7.50
2017,02,11,12,21,7.50
2017,02,11,12,22,7.60
2017,02,11,12,23,7.60
2017,02,11,12,24,7.60
2017,02,11,12,25,7.60
2017,02,11,12,26,7.70
2017,02,11,12,27,7.70
2017,02,11,12,28,7.70
2017,02,11,12,29,7.70
2017,02,11,12,30,7.80
2017,02,11,12,31,7.80
2017,02,11,12,32,7.80
2017,02,11,12,33,7.80
2017,02,11,12,34,7.80
2017,02,11,12,35,7.80
2017,02,11,12,36,7.80
2017,02,11,12,37,7.80
2017,02,11,12,38,7.70
2017,02,11,12,39,7.70
2017,02,11,12,40,7.60
2017,02,11,12,41,7.60
2017,02,11,12,42,7.60
2017,02,11,12,43,7.60
2017,02,11,12,44,7.60
2017,02,11,12,45,7.50
2017,02,11,12,46,7.50
2017,02,11,12,47,7.50
2017,02,11,12,48,7.50
2017,02,11,12,49,7.40
2017,02,11,12,50,7.40
2017,02,11,12,51,7.40
2017,02,11,12,52,7.40
2017,02,11,12,53,7.40
2017,02,11,12,54,7.30
2017,02,11,12,55,7.30
2017,02,11,12,56,7.30
2017,02,11,12,57,7.20
2017,02,11,12,58,7.20
2017,02,11,12,59,7.20
2017,02,11,13,00,7.10
2017,02,11,13,01,7.10
2017,02,11,13,02,7.10
2017,02,11,13,03,7.10
2017,02,11,13,04,7.10
2017,02,11,13,05,7.10
2017,02,11,13,06,7.10
2017,02,11,13,07,7.10
2017,02,11,13,08,7.10
2017,02,11,13,09,7.10
2017,02,11,13,10,7.10
2017,02,11,13,11,7.20
2017,02,11,13,12,7.20
2017,02,11,13,13,7.20
2017,02,11,13,14,7.20
2017,02,11,13,15,7.20
2017,02,11,13,16,7.20
2017,02,11,13,17,7.20
2017,02,11,13,18,7.30
2017,02,11,13,19,7.30
2017,02,11,13,20,7.30
2017,02,11,13,21,7.30
2017,02,11,13,22,7.30
2017,02,11,13,23,7.30
2017,02,11,13,24,7.30
2017,02,11,13,25,7.30
2017,02,11,13,26,7.30
2017,02,11,13,27,7.30
2017,02,11,13,28,7.30
2017,02,11,13,29,7.30
2017,02,11,13,30,7.30
2017,02,11,13,31,7.30
2017,02,11,13,32,7.20
2017,02,11,13,33,7.20
2017,02,11,13,34,7.20
2017,02,11,13,35,7.30
2017,02,11,13,36,7.30
2017,02,11,13,37,7.30
2017,02,11,13,38,7.30
2017,02,11,13,39,7.30
2017,02,11,13,40,7.30
2017,02,11,13,41,7.30
2017,02,11,13,42,7.30
2017,02,11,13,43,7.30
2017,02,11,13,44,7.30
2017,02,11,13,45,7.30
2017,02,11,13,46,7.30
2017,02,11,13,47,7.30
2017,02,11,13,48,7.40
2017,02,11,13,49,7.40
2017,02,11,13,50,7.40
2017,02,11,13,51,7.40
2017,02,11,13,52,7.40
2017,02,11,13,53,7.50
2017,02,11,13,54,7.40
2017,02,11,13,55,7.40
2017,02,11,13,56,7.40
2017,02,11,13,57,7.40
2017,02,11,13,58,7.30
2017,02,11,13,59,7.30
2017,02,11,14,00,7.30
2017,02,11,14,01,7.30
2017,02,11,14,02,7.20
2017,02,11,14,03,7.20
2017,02,11,14,04,7.20
2017,02,11,14,05,7.20
2017,02,11,14,06,7.20
2017,02,11,14,07,7.10
2017,02,11,14,08,7.10
2017,02,11,14,09,7.10
2017,02,11,14,10,7.10
2017,02,11,14,11,7.10
2017,02,11,14,12,7.10
2017,02,11,14,13,7.00
2017,02,11,14,14,7.00
2017,02,11,14,15,7.00
2017,02,11,14,16,7.00
2017,02,11,14,17,6.90
2017,02,11,14,18,6.90
2017,02,11,14,19,6.90
2017,02,11,14,20,6.90
2017,02,11,14,21,6.90
2017,02,11,14,22,6.90
2017,02,11,14,23,6.90
2017,02,11,14,24,6.90
2017,02,11,14,25,6.90
2017,02,11,14,26,6.90
2017,02,11,14,27,6.90
2017,02,11,14,28,6.80
2017,02,11,14,29,6.80
2017,02,11,14,30,6.80
2017,02,11,14,31,6.70
2017,02,11,14,32,6.70
2017,02,11,14,33,6.70
2017,02,11,14,34,6.60
2017,02,11,14,35,6.60
2017,02,11,14,36,6.50
2017,02,11,14,37,6.50
2017,02,11,14,38,6.50
2017,02,11,14,39,6.40
2017,02,11,14,40,6.40
2017,02,11,14,41,6.40
2017,02,11,14,42,6.30
2017,02,11,14,43,6.30
2017,02,11,14,44,6.30
2017,02,11,14,45,6.20
2017,02,11,14,46,6.20
2017,02,11,14,47,6.20
2017,02,11,14,48,6.20
2017,02,11,14,49,6.20
2017,02,11,14,50,6.20
2017,02,11,14,51,6.20
2017,02,11,14,52,6.20
2017,02,11,14,53,6.20
2017,02,11,14,54,6.20
2017,02,11,14,55,6.20
2017,02,11,14,56,6.20
2017,02,11,14,57,6.20
2017,02,11,14,58,6.20
2017,02,11,14,59,6.20
2017,02,11,15,00,6.20
2017,02,11,15,01,6.20
2017,02,11,15,02,6.20
2017,02,11,15,03,6.20
2017,02,11,15,04,6.20
2017,02,11,15,05,6.20
2017,02,11,15,06,6.20
2017,02,11,15,07,6.20
2017,02,11,15,08,6.20
2017,02,11,15,09,6.20
2017,02,11,15,10,6.20
2017,02,11,15,11,6.20
2017,02,11,15,12,6.20
2017,02,11,15,13,6.10
2017,02,11,15,14,6.10
2017,02,11,15,15,6.10
2017,02,11,15,16,6.10
2017,02,11,15,17,6.10
2017,02,11,15,18,6.10
2017,02,11,15,19,6.10
2017,02,11,15,20,6.10
2017,02,11,15,21,6.10
2017,02,11,15,22,6.10
2017,02,11,15,23,6.20
2017,02,11,15,24,6.20
2017,02,11,15,25,6.20
2017,02,11,15,26,6.20
2017,02,11,15,27,6.20
2017,02,11,15,28,6.20
2017,02,11,15,29,6.20
2017,02,11,15,30,6.20
2017,02,11,15,31,6.20
2017,02,11,15,32,6.20
2017,02,11,15,33,6.20
2017,02,11,15,34,6.20
2017,02,11,15,35,6.20
2017,02,11,15,36,6.30
2017,02,11,15,37,6.30
2017,02,11,15,38,6.30
2017,02,11,15,39,6.30
2017,02,11,15,40,6.30
2017,02,11,15,41,6.30
2017,02,11,15,42,6.30
2017,02,11,15,43,6.30
2017,02,11,15,44,6.30
2017,02,11,15,45,6.30
2017,02,11,15,46,6.30
2017,02,11,15,47,6.30
2017,02,11,15,48,6.30
2017,02,11,15,49,6.30
2017,02,11,15,50,6.30
2017,02,11,15,51,6.30
2017,02,11,15,52,6.30
2017,02,11,15,53,6.30
2017,02,11,15,54,6.30
2017,02,11,15,55,6.30
2017,02,11,15,56,6.30
2017,02,11,15,57,6.30
2017,02,11,15,58,6.30
2017,02,11,15,59,6.30
2017,02,11,16,00,6.30
2017,02,11,16,01,6.30
2017,02,11,16,02,6.30
2017,02,11,16,03,6.30
2017,02,11,16,04,6.30
2017,02,11,16,05,6.30
2017,02,11,16,06,6.30
2017,02,11,16,07,6.30
2017,02,11,16,08,6.30
2017,02,11,16,09,6.30
2017,02,11,16,10,6.30
2017,02,11,16,11,6.30
2017,02,11,16,12,6.30
2017,02,11,16,13,6.30
2017,02,11,16,14,6.30
2017,02,11,16,15,6.40
2017,02,11,16,16,6.40
2017,02,11,16,17,6.40
2017,02,11,16,18,6.40
2017,02,11,16,19,6.40
2017,02,11,16,20,6.40
2017,02,11,16,21,6.50
2017,02,11,16,22,6.50
2017,02,11,16,23,6.50
2017,02,11,16,24,6.40
2017,02,11,16,25,6.40
2017,02,11,16,26,6.40
2017,02,11,16,27,6.40
2017,02,11,16,28,6.40
2017,02,11,16,29,6.40
2017,02,11,16,30,6.40
2017,02,11,16,31,6.40
2017,02,11,16,32,6.40
2017,02,11,16,33,6.40
2017,02,11,16,34,6.40
2017,02,11,16,35,6.40
2017,02,11,16,36,6.40
2017,02,11,16,37,6.40
2017,02,11,16,38,6.40
2017,02,11,16,39,6.40
2017,02,11,16,40,6.40
2017,02,11,16,41,6.40
2017,02,11,16,42,6.40
2017,02,11,16,43,6.40
2017,02,11,16,44,6.40
2017,02,11,16,45,6.40
2017,02,11,16,46,6.40
2017,02,11,16,47,6.40
2017,02,11,16,48,6.40
2017,02,11,16,49,6.40
2017,02,11,16,50,6.30
2017,02,11,16,51,6.30
2017,02,11,16,52,6.30
2017,02,11,16,53,6.30
2017,02,11,16,54,6.30
2017,02,11,16,55,6.30
2017,02,11,16,56,6.30
2017,02,11,16,57,6.30
2017,02,11,16,58,6.30
2017,02,11,16,59,6.20
2017,02,11,17,00,6.20
2017,02,11,17,01,6.20
2017,02,11,17,02,6.20
2017,02,11,17,03,6.20
2017,02,11,17,04,6.20
2017,02,11,17,05,6.20
2017,02,11,17,06,6.20
2017,02,11,17,07,6.20
2017,02,11,17,08,6.20
2017,02,11,17,09,6.20
2017,02,11,17,10,6.20
2017,02,11,17,11,6.20
2017,02,11,17,12,6.10
2017,02,11,17,13,6.10
2017,02,11,17,14,6.10
2017,02,11,17,15,6.10
2017,02,11,17,16,6.10
2017,02,11,17,17,6.10
2017,02,11,17,18,6.10
2017,02,11,17,19,6.00
2017,02,11,17,20,6.00
2017,02,11,17,21,6.00
2017,02,11,17,22,5.90
2017,02,11,17,23,5.90
2017,02,11,17,24,5.90
2017,02,11,17,25,5.90
2017,02,11,17,26,5.80
2017,02,11,17,27,5.80
2017,02,11,17,28,5.80
2017,02,11,17,29,5.80
2017,02,11,17,30,5.70
2017,02,11,17,31,5.70
2017,02,11,17,32,5.70
2017,02,11,17,33,5.60
2017,02,11,17,34,5.60
2017,02,11,17,35,5.60
2017,02,11,17,36,5.50
2017,02,11,17,37,5.50
2017,02,11,17,38,5.50
2017,02,11,17,39,5.40
2017,02,11,17,40,5.40
2017,02,11,17,41,5.40
2017,02,11,17,42,5.30
2017,02,11,17,43,5.30
2017,02,11,17,44,5.20
2017,02,11,17,45,5.20
2017,02,11,17,46,5.10
2017,02,11,17,47,5.00
2017,02,11,17,48,5.00
2017,02,11,17,49,4.90
2017,02,11,17,50,4.80
2017,02,11,17,51,4.80
2017,02,11,17,52,4.70
2017,02,11,17,53,4.60
2017,02,11,17,54,4.60
2017,02,11,17,55,4.50
2017,02,11,17,56,4.50
2017,02,11,17,57,4.40
2017,02,11,17,58,4.40
2017,02,11,17,59,4.30
2017,02,11,18,00,4.30
2017,02,11,18,01,4.30
2017,02,11,18,02,4.20
2017,02,11,18,03,4.20
2017,02,11,18,04,4.20
2017,02,11,18,05,4.20
2017,02,11,18,06,4.10
2017,02,11,18,07,4.10
2017,02,11,18,08,4.10
2017,02,11,18,09,4.10